Location: All Nations United Methodist Church
(33.0215°N, 96.7483°W)
Time: 15:43:26
(UTC+00:00)

ATLAS CENTAUR R/B - Pass Details

Date: 24 January 2021
Orbit: 474 x 671 km, 64.6° (Epoch: 05 March)

Event Time Altitude Azimuth Distance (km) Brightness Sun altitude
Exits shadow 12:22:41 23° 296° (WNW) 1,049 2.1 -13.6°
Maximum altitude 12:22:59 24° 304° (NW) 1,040 2.2 -13.5°
Drops below altitude 10° 12:25:59 10° 360° (N) 1,642 3.6 -12.9°
Sets 12:28:24 0° 15° (NNE) 2,523 4.7 -12.4°
